Home > Weather > Wismar > Past weeks

Flag for Germany Past Weather in Wismar, Mecklenburg-Western Pomerania, Germany — Yesterday and Last 2 Weeks

Now
54 °F

Partly cloudy.


Feels Like: 53 °F
Forecast: 56 / 69 °F
Wind: 5 mph from East

Location: Laage

Current Time: Jun 29, 2016 at 4:10:40 AM

Latest Report: Jun 29, 2016 at 3:20 AM


Visibility: N/A

Pressure: 29.89 "Hg

Humidity: 94%

Dew Point: 52 °F

Location of WismarLocation

Past Weather in Wismar — Graph

°F

Wismar Temperature Yesterday

Maximum temperature yesterday: 66 °F (at 2:20 PM)
Minimum temperature yesterday: 55 °F (at 11:20 PM)
Average temperature yesterday: 62 °F

High & Low Weather Summary for the Past Weeks

 TemperatureHumidityPressure
High88 °F (Jun 23, 3:20 PM)100% (Jun 15, 12:20 AM)30.24 "Hg (Jun 15, 12:20 AM)
Low46 °F (Jun 20, 5:20 AM)40% (Jun 24, 2:20 PM)29.45 "Hg (Jun 14, 7:20 PM)
Average64 °F77%29.89 "Hg
* Reported Jun 14 2:20 AM — Jun 29 2:20 AM, Wismar, Weather by CustomWeather, © 2016

Note: Actual official high and low records may vary slightly from our data, if they occured in-between our weather recording intervals... More about our weather records

Advertising

Wismar Weather History for the Previous 24 Hours

Scroll right to see more
 ConditionsComfort  
Time TempWeatherWind HumidityBarometerVisibility
2:20 AM
Wed, Jun 29
54 °FPassing clouds.3 mph88%29.92 "HgN/A
1:20 AM55 °FPassing clouds.3 mph82%29.95 "HgN/A
12:20 AM55 °FPassing clouds.2 mph82%29.95 "HgN/A
11:20 PM
Tue, Jun 28
55 °FPassing clouds.3 mph82%29.98 "HgN/A
10:20 PM59 °FScattered clouds.5 mph72%29.98 "HgN/A
9:20 PM61 °FPartly sunny.3 mph72%29.98 "HgN/A
8:20 PM63 °FPartly sunny.3 mph64%29.98 "HgN/A
7:20 PM66 °FScattered clouds.7 mph52%30.01 "HgN/A
6:20 PM66 °FBroken clouds.5 mph56%30.01 "HgN/A
5:20 PM66 °FPartly sunny.8 mph49%30.01 "HgN/A
4:20 PM66 °FBroken clouds.10 mph56%30.01 "HgN/A
3:20 PM66 °FScattered clouds.8 mph60%30.01 "HgN/A
2:20 PM66 °FScattered clouds.6 mph52%30.01 "HgN/A
1:20 PM64 °FPartly sunny.9 mph60%30.04 "HgN/A
12:20 PM64 °FPartly sunny.10 mph64%30.04 "HgN/A
11:20 AM63 °FBroken clouds.10 mph73%30.04 "HgN/A
10:20 AM64 °FBroken clouds.7 mph64%30.04 "HgN/A
9:20 AM63 °FBroken clouds.8 mph77%30.01 "HgN/A
8:20 AM61 °FBroken clouds.8 mph83%30.01 "HgN/A
7:20 AM59 °FPartly sunny.7 mph94%30.01 "HgN/A
6:20 AM59 °FPartly sunny.7 mph88%30.01 "HgN/A
5:20 AM59 °FPartly cloudy.7 mph94%30.01 "HgN/A
4:20 AM59 °FPartly cloudy.5 mph88%30.01 "HgN/A
Weather by CustomWeather, © 2016

See weather overviewHow to use our weather pages